C/2022 N2 ( PanSTARRS )

Japanese version
Home page
Updated on March 26, 2025

---------------------------------------------------------------------

* Profile

Discovery Date July 4, 2022
Magnitude 20.6 mag
Discoverer Pan-STARRS 2 telescope (Haleakala)

* Pictures

* Orbital Elements

Epoch 2025 May 5.0 TT = JDT 2460800.5
T 2025 July 31.78488 TT                                 Pike
q   3.8253898            (2000.0)            P               Q
z  -0.0008596      Peri.   75.39434     +0.81491739     -0.57625426
 +/-0.0000007      Node   319.74054     +0.48797856     +0.73988375
e   1.0032884      Incl.    5.50293     +0.31270844     +0.34713553
From 1694 observations 2022 June 2-2025 Feb. 16, mean residual 0".5.

* Finding Charts

* Magnitudes Graph

        m1 = 5.0 + 5 log d + 10.0 log r

---------------------------------------------------------------------

The orbital elements are published on M.P.E.C. 2025-D254.
The charts are made with StellaNavigator Ver.10 (AstroArts).
The magnitudes graphs are made with Comet for Windows.

---------------------------------------------------------------------

Copyright(C) Seiichi Yoshida (comet@aerith.net). All rights reserved.